Change the Weather History Date:

Wednesday, April 9, 2014

  Actual Average Record
Temperature  
Mean Temperature 49 °F 49 °F  
Max Temperature 60 °F 60 °F 84 °F (2001)
Min Temperature 38 °F 39 °F 19 °F (1997)
Degree Days  
Heating Degree Days 16 16  
Month to date heating degree days 129 156  
Since 1 July heating degree days 5605 5195  
Cooling Degree Days 0 0  
Month to date cooling degree days 0 0  
Year to date cooling degree days 0 0  
Moisture  
Dew Point 35 °F    
Average Humidity 58    
Maximum Humidity 79    
Minimum Humidity 36    
Precipitation  
Precipitation 0.00 in 0.14 in 1.88 in (1929)
Month to date precipitation 2.80 1.16  
Year to date precipitation 10.40 9.45  
Snow  
Snow 0.00 in 0.10 in 2.80 in (1982)
Month to date snowfall 0.0 0.4  
Since 1 July snowfall 52.5 23.1  
Snow Depth 0.00 in    
Sea Level Pressure  
Sea Level Pressure 29.99 in    
Wind  
Wind Speed 8 mph (WNW)    
Max Wind Speed 17 mph    
Max Gust Speed 21 mph    
Visibility 10 miles    
Events      
T = Trace of Precipitation, MM = Missing Value Source: NWS Daily Summary

Daily Weather History Graph

Daily Weather History Graph

Search for Another Location

Airport or City:

Trip Planner

Search our weather history database for the weather conditions in past years. The results will help you decide how hot, cold, wet, or windy it might be!

Date:

Astronomy

Apr. 09, 2014 Rise Set
Actual Time 7:08 AM EDT 8:09 PM EDT
Civil Twilight 6:40 AM EDT 8:36 PM EDT
Nautical Twilight 6:07 AM EDT 9:09 PM EDT
Astronomical Twilight 5:33 AM EDT 9:44 PM EDT
Moon 2:56 PM EDT (4/9) 3:56 AM EDT (4/9)
Length of Visible Light 13h 56m
Length of Day
13h 00m
Waxing Gibbous, 71% of the Moon is Illuminated
Apr 9
Waxing Gibbous
Apr 15
Full
Apr 22
Last Quarter
Apr 29
New
May 6
First Quarter

Hourly Weather History & Observations

Time (EDT) Temp. Windchill Dew Point Humidity Pressure Visibility Wind Dir Wind Speed Gust Speed Precip Events Conditions
12:56 AM 46.0 °F 41.9 °F 39.0 °F 76% 29.85 in 10.0 mi WNW 8.1 mph - N/A   Clear
1:56 AM 44.1 °F 39.0 °F 37.9 °F 79% 29.85 in 10.0 mi NW 9.2 mph - N/A   Clear
2:56 AM 43.0 °F 37.2 °F 36.0 °F 76% 29.86 in 10.0 mi NW 10.4 mph - N/A   Clear
3:56 AM 42.1 °F 36.1 °F 35.1 °F 76% 29.87 in 10.0 mi NW 10.4 mph - N/A   Clear
4:56 AM 41.0 °F 35.2 °F 35.1 °F 79% 29.88 in 10.0 mi NW 9.2 mph - N/A   Clear
5:56 AM 39.9 °F 33.4 °F 34.0 °F 79% 29.91 in 10.0 mi NW 10.4 mph - N/A   Clear
6:56 AM 39.0 °F 32.8 °F 33.1 °F 79% 29.94 in 10.0 mi NNW 9.2 mph - N/A   Partly Cloudy
7:56 AM 39.0 °F 32.8 °F 34.0 °F 82% 29.98 in 9.0 mi NNW 9.2 mph - N/A   Clear
8:56 AM 43.0 °F 37.7 °F 36.0 °F 76% 30.01 in 10.0 mi NNW 9.2 mph - N/A   Clear
9:56 AM 46.0 °F 43.1 °F 36.0 °F 68% 30.04 in 10.0 mi North 5.8 mph - N/A   Clear
10:56 AM 48.9 °F - 37.0 °F 64% 30.05 in 10.0 mi West 3.5 mph - N/A   Clear
11:56 AM 54.0 °F - 35.1 °F 49% 30.05 in 10.0 mi Calm Calm - N/A   Clear
12:56 PM 55.9 °F - 35.1 °F 45% 30.05 in 10.0 mi West 9.2 mph - N/A   Partly Cloudy
1:56 PM 57.0 °F - 33.1 °F 40% 30.04 in 10.0 mi NW 8.1 mph 18.4 mph N/A   Mostly Cloudy
2:56 PM 57.0 °F - 32.0 °F 39% 30.04 in 10.0 mi NW 9.2 mph - N/A   Mostly Cloudy
3:56 PM 57.0 °F - 30.0 °F 36% 30.03 in 10.0 mi NW 11.5 mph - N/A   Mostly Cloudy
4:56 PM 57.0 °F - 32.0 °F 39% 30.03 in 10.0 mi West 13.8 mph - N/A   Mostly Cloudy
5:56 PM 57.9 °F - 34.0 °F 41% 30.02 in 10.0 mi WSW 11.5 mph - N/A   Mostly Cloudy
6:56 PM 57.9 °F - 34.0 °F 41% 30.02 in 10.0 mi West 8.1 mph - N/A   Scattered Clouds
7:56 PM 52.0 °F - 36.0 °F 54% 30.04 in 10.0 mi WSW 5.8 mph - N/A   Mostly Cloudy
8:56 PM 54.0 °F - 33.1 °F 45% 30.04 in 10.0 mi SSW 4.6 mph - N/A   Scattered Clouds
9:56 PM 53.1 °F - 33.1 °F 47% 30.05 in 10.0 mi SSW 6.9 mph - N/A   Partly Cloudy
10:56 PM 51.1 °F - 33.1 °F 50% 30.04 in 10.0 mi South 6.9 mph - N/A   Clear
11:56 PM 51.1 °F - 33.1 °F 50% 30.03 in 10.0 mi SSW 9.2 mph - N/A   Clear